Regional Weather Roundup
Issued by NWS

Home | Current Version | Previous Version | Text Only | Print | Product List | Glossary On
Versions: 1 2 3 4 5 6 7 8 9 10 11 12 13 14 15 16 17 18 19 20 21 22 23 24 25 26 27 28 29 30 31 32 33 34 35 36 37 38 39 40 41 42 43 44 45 46 47 48 49 50
000
ASUS44 KJAN 301803
RWRMS

MISSISSIPPI HOURLY WEATHER ROUNDUP
NATIONAL WEATHER SERVICE JACKSON MS
100 PM CDT SAT APR 30 2016

NOTE: "FAIR: INDICATES FEW OR NO CLOUDS BELOW 12,000 FEET WITH NO
SIGNIFICANT WEATHER AND/OR OBSTRUCTIONS TO VISIBILITY.

MSZ001>002-007>008-010>013-018>021-025>028-034>036-301900-
NORTHWEST MISSISSIPPI

CITY           SKY/WX    TMP DP  RH WIND       PRES   REMARKS
BATESVILLE     LGT RAIN  66  64  92 SE3       29.85F
CLEVELAND      FAIR      68  65  90 SE14G30   29.79R
GREENWOOD      CLOUDY    68  62  81 N3        29.88R
6HR MIN TEMP:  66; 6HR MAX TEMP:  73; 6HR PCP:  0.18;

GREENVILLE     LGT RAIN  67  62  84 S21G29    29.85R
6HR MIN TEMP:  66; 6HR MAX TEMP:  71; 6HR PCP:  0.57;

TUNICA         CLOUDY    70  59  68 W6        29.80F
WINONA         CLOUDY    67  63  86 NE3       29.88F
$$

MSZ003>006-009-014>017-022>024-029>033-037>039-301900-
NORTHEAST MISSISSIPPI

CITY           SKY/WX    TMP DP  RH WIND       PRES   REMARKS
COLUMBUS AFB   CLOUDY    75  69  83 S6        29.89F
6HR MIN TEMP:  63; 6HR MAX TEMP:  75;

CORINTH        CLOUDY    70  64  83 SE6       29.90F
GOLDN TRIANGLE CLOUDY    73  68  83 S7        29.89F
STARKVILLE     MOCLDY    73  68  83 S5        29.88F
TUPELO         CLOUDY    69  62  78 NW6       29.91F
6HR MIN TEMP:  64; 6HR MAX TEMP:  73;

$$

MSZ040-058-301900-
CENTRAL MISSISSIPPI

CITY           SKY/WX    TMP DP  RH WIND       PRES   REMARKS
JACKSON INTL   CLOUDY    77  69  76 SE10      29.86F
6HR MIN TEMP:  71; 6HR MAX TEMP:  77;

JACKSON HAWKNS CLOUDY    76  69  79 SE10      29.86F
6HR MIN TEMP:  71; 6HR MAX TEMP:  76;

MADISON        FAIR      75  70  83 SE5       29.86F
MERIDIAN KEY   CLOUDY    79  68  69 S12       29.89F
6HR MIN TEMP:  68; 6HR MAX TEMP:  80;

MERIDIAN NAS   CLOUDY    79  68  69 S8        29.90F
6HR MIN TEMP:  65; 6HR MAX TEMP:  79;

VICKSBURG TVR  LGT RAIN  76  70  82 SE6       29.84F
6HR MIN TEMP:  73; 6HR MAX TEMP:  76; 6HR PCP:  0.02;

VICKSBURG VKS  CLEAR     73  72  94 SE6       29.83F FOG
$$

MSZ059>079-301900-
SOUTH MISSISSIPPI

CITY           SKY/WX    TMP DP  RH WIND       PRES   REMARKS
BROOKHAVEN     LGT RAIN N/A N/A N/A NE3       29.87F
COLUMBIA       FAIR      79  72  78 SE3       29.90S
HATTIESBURG    CLOUDY    81  68  64 SE16      29.87F
6HR MIN TEMP:  74; 6HR MAX TEMP:  82;

MCCOMB         CLOUDY    75  73  93 E6        29.85S
6HR MIN TEMP:  72; 6HR MAX TEMP:  76;

NATCHEZ        CLOUDY    72  68  88 E17G25    29.76F
6HR MIN TEMP:  72; 6HR MAX TEMP:  73; 6HR PCP:  0.23;

PINE BELT      CLOUDY    79  68  69 SE12      29.88F
6HR MIN TEMP:  70; 6HR MAX TEMP:  79;

$$

MSZ080>082-301900-
COASTAL MISSISSIPPI

CITY           SKY/WX    TMP DP  RH WIND       PRES   REMARKS
BAY ST LOUIS   PTSUNNY   79  70  73 SE14G24   29.86F
BILOXI         CLOUDY    80  76  86 SE9G18    29.86F
6HR MIN TEMP:  76; 6HR MAX TEMP:  81;

PASCAGOULA     CLOUDY    80  73  79 SE15G21   29.88F
6HR MIN TEMP:  75; 6HR MAX TEMP:  80;

GULFPORT       CLOUDY    79  73  82 SE16      29.86F
6HR MIN TEMP:  76; 6HR MAX TEMP:  80;

$$




USA.gov is the U.S. government's official web portal to all federal, state and local government web resources and services.